sat.trackr.live / text

‹ back to catalog

ALSAT-1B

NORAD 41785 · 2016-059C

PAYLOAD ACTIVE UNKNOWN

§ Identity

Operator
Country
ALG
Launch date
2016-09-26
Launch site
SRILR
Launch vehicle
Mass (kg)
RCS (m²)
0.38

Purposes: earth_obs

External: N2YO · Heavens-Above · Gunter

§ Orbital elements

Epoch: 2026-05-25T04:48:40.074048Z

Period
97.81 min
Inclination
97.7759°
Eccentricity
0.0008107
Mean motion
14.72254833 rev/d
Perigee alt
648.2 km
Apogee alt
659.6 km
Semi-major
7,032.0 km
B*
9.9006e-5
RAAN
154.9572°
Arg perigee
307.0476°
Mean anomaly
52.9990°
Rev number
51,719

§ Raw data

ALSAT-1B1 41785U 16059C   26145.20046382  .00000578  00000+0  99006-4 0  99962 41785  97.7759 154.9572 0008107 307.0476  52.9990 14.72254833517193

JSON: /api/v1/satellites/41785 · /tle

For live sub-satellite position, see the globe view (requires WebGL).

§ Visibility from observer

Set your observer location to see the next 7 days of passes ≥ 10°. The values pass through the URL so the page stays shareable.

No JS? Fill the form by hand. The geolocation button needs JavaScript.

§ Radio — SatNOGS DB

ModeDescriptionDownlinkUplink
FM S-band telemetry 2.233 GHz

1 transmitter · refreshed weekly from db.satnogs.org